Terminal Aerodrome Forecast
Issued by NWS Dallas/Fort Worth, TX

Home | Current Version | Previous Version | Text Only | Print | Product List | Glossary On
Versions: 1 2 3 4 5 6 7 8 9 10 11 12 13 14 15 16 17 18 19 20 21 22 23 24 25 26 27
000
FTUS44 KFWD 211700
TAFACT
TAF
KACT 211732Z 2118/2218 15011KT 6SM BR OVC005
     FM220300 15013KT 3SM BR VCSH OVC004
     FM220900 15013KT 2SM BR OVC004
     FM221500 15014KT 5SM BR VCTS OVC010CB=

USA.gov is the U.S. government's official web portal to all federal, state and local government web resources and services.